Flag Weather past 2 weeks in Pomona, California, U.S.A.

Now
81 °F

Broken clouds.


Feels Like: 80 °F
Forecast: 56 / 71 °F
Wind: 15 mph from Southwest

Location: Chino Airport

Current Time: Oct 30, 2014 at 5:04:42 PM

Latest Report: Oct 30, 2014 at 3:53 PM


Visibility: 10 mi

Pressure: 29.91 "Hg

Humidity: 30%

Dew point: 47 °F

Location of PomonaLocation

Historic Weather in Pomona — Graph

°F

Pomona temperature yesterday

Maximum temperature yesterday: 90 °F (at 3:53 PM)
Minimum temperature yesterday: 50 °F (at 6:53 AM)
Average temperature yesterday: 68 °F

Past Weeks' High & Low Weather Summary

 TemperatureHumidityPressure
High94 °F (Oct 24, 1:53 PM)97% (Oct 20, 5:53 AM)30.06 "Hg (Oct 20, 5:53 AM)
Low50 °F (Oct 29, 6:53 AM)11% (Oct 24, 1:53 PM)29.82 "Hg (Oct 18, 4:53 PM)
Average67 °F65%29.94 "Hg
* Reported Oct 15 3:53 PM — Oct 30 3:53 PM, Pomona, Weather by CustomWeather, © 2014

Note: Actual official high and low records may vary slightly from our data, if they occured in-between our weather recording intervals... More about our weather records

Advertising

Pomona weather history for previous 24 hours

 ConditionsComfort  
Time TempWeatherWind HumidityBarometerVisibility
3:53 PM
Oct 30
81 °FBroken clouds.15 mph30%29.91 "Hg10 mi
2:53 PM85 °FScattered clouds.14 mph22%29.92 "Hg10 mi
1:53 PM86 °FScattered clouds.7 mph21%29.92 "Hg10 mi
12:53 PM81 °FPartly sunny.No wind30%29.96 "Hg10 mi
11:53 AM74 °FPartly sunny.No wind45%29.98 "Hg10 mi
10:53 AM71 °FPartly sunny.No wind47%30.00 "Hg10 mi
9:53 AM66 °FPartly sunny.No wind54%30.00 "Hg10 mi
8:53 AM62 °FPartly sunny.3 mph67%30.01 "Hg10 mi
7:53 AM54 °FPassing clouds.No wind86%30.00 "Hg10 mi
6:53 AM53 °FPassing clouds.No wind86%29.99 "Hg10 mi
5:53 AM53 °FClear.No wind83%29.99 "Hg7 mi
4:53 AM53 °FFog.3 mph86%29.98 "Hg6 mi
3:53 AM54 °FClear.No wind83%29.98 "Hg6 mi
2:53 AM55 °FClear.No wind80%29.98 "Hg7 mi
1:53 AM58 °FClear.No wind72%30.00 "Hg9 mi
12:53 AM58 °FClear.No wind72%29.99 "Hg7 mi
11:53 PM
Oct 29
57 °FClear.No wind78%29.99 "Hg6 mi
10:53 PM60 °FClear.No wind72%30.00 "Hg7 mi
9:53 PM64 °FClear.No wind63%29.99 "Hg8 mi
8:53 PM67 °FClear.No wind55%29.98 "Hg10 mi
7:53 PM69 °FClear.7 mph55%29.98 "Hg10 mi
6:53 PM74 °FSunny.9 mph50%29.96 "Hg10 mi
5:53 PM78 °FPassing clouds.9 mph45%29.94 "Hg10 mi
Weather by CustomWeather, © 2014

See weather overviewHow to use our weather pages